Regional Weather Roundup
Issued by NWS

Home | Current Version | Previous Version | Graphics & Text | Print | Product List | Glossary On
Versions: 1 2 3 4 5 6 7 8 9 10 11 12 13 14 15 16 17 18 19 20 21 22 23 24 25 26 27 28 29 30 31 32 33 34 35 36 37 38 39 40 41 42 43 44 45 46 47 48 49 50
000
ASUS43 KOAX 290110
RWRNE

WEATHER ROUNDUP FOR NEBRASKA
NATIONAL WEATHER SERVICE OMAHA NE
800 PM CDT SUN AUG 28 2016

NOTES: SATELLITE DATA IS BEING USED TO AUGMENT CLOUD COVER ABOVE
       12000 FEET.
       "FAIR" INDICATES FEW OR NO CLOUDS BELOW 12,000 FEET WITH NO
       SIGNIFICANT WEATHER AND/OR OBSTRUCTIONS TO VISIBILITY.

  * THESE STATIONS DO NOT REPORT WEATHER SUCH AS RAIN...SNOW OR FOG.

NEZ001>004-019>022-054>056-290200-
NEBRASKA PANHANDLE

CITY           SKY/WX    TMP DP  RH WIND       PRES   REMARKS
SCOTTSBLUFF    PTCLDY    82  56  40 S9        30.07R
ALLIANCE       CLOUDY    79  53  40 S9        30.06S
CHADRON        CLEAR     86  39  19 S12       29.99R
KIMBALL        CLOUDY    76  45  32 SE25G40   30.14S
SIDNEY         CLOUDY    71  54  54 W9        30.15R
$$

NEZ057>060-069>072-079>082-290200-
SOUTHWEST NEBRASKA

CITY           SKY/WX    TMP DP  RH WIND       PRES   REMARKS
NORTH PLATTE   CLEAR     77  60  55 SE6       30.07R
IMPERIAL       CLEAR     77  58  51 S7        30.09R
LEXINGTON      CLEAR     79  64  59 CALM      30.08R
MCCOOK         CLEAR     78  61  55 E7        30.07R
OGALLALA       CLEAR     81  53  38 SE5       30.07R
$$

NEZ005>010-023>029-035>040-094-290200-
NORTH CENTRAL NEBRASKA

CITY           SKY/WX    TMP DP  RH WIND       PRES   REMARKS
VALENTINE      CLEAR     82  61  48 SE6       30.00R
AINSWORTH      CLEAR     82  62  51 S10       30.03R
BROKEN BOW     CLEAR     78  60  53 S9        30.07R
O`NEILL        PTCLDY    83  63  50 S10       30.05R
ORD            CLEAR     81  64  56 S6        30.05R
THEDFORD       CLEAR     82  55  39 S12       30.05S
$$

NEZ041-046>049-061>064-073>077-083>087-290200-
SOUTH CENTRAL NEBRASKA

CITY           SKY/WX    TMP DP  RH WIND       PRES   REMARKS
GRAND ISLAND   CLEAR     82  67  60 SE6       30.07R
AURORA         PTCLDY    80  67  63 SE6       30.07R
HASTINGS       PTCLDY    83  67  58 S8        30.07R
HEBRON         MOCLDY    81  70  70 SE6       30.06R
HOLDREGE       CLEAR     79  64  61 S5        30.08R
KEARNEY *      MOCLDY    79  68  69 S9        30.06R
YORK           PTCLDY    77  68  73 SE16      30.08R
$$

NEZ011>018-030>034-042>045-290200-
NORTHEAST NEBRASKA

CITY           SKY/WX    TMP DP  RH WIND       PRES   REMARKS
NORFOLK        PTCLDY    80  68  66 SE14      30.05R
ALBION         PTCLDY    80  69  69 SE7       30.06R
BLAIR          CLOUDY    74  67  78 SE6       30.11R
FREMONT        CLEAR     76  65  68 SE9       30.10R
TEKAMAH        PTCLDY    74  66  76 E10       30.11R
WAYNE          PTCLDY    79  73  82 SE9       30.08R
$$

NEZ050>053-065>068-078-088>093-290200-
SOUTHEAST NEBRASKA

CITY           SKY/WX    TMP DP  RH WIND       PRES   REMARKS
LINCOLN        PTCLDY    77  67  71 SE10      30.09R
OMAHA EPPLEY   CLOUDY    75  65  70 SE8       30.10R
BEATRICE       TSTM      71  67  89 SW9       30.12R
FALLS CITY     CLOUDY    73  68  84 CALM      30.09R
NEBRASKA CITY  LGT RAIN  70  64  81 SE5       30.11R
PLATTSMOUTH    CLOUDY    73  65  77 SE5       30.11S
$$

NEZ044-045-051>053-067-290200-
OMAHA AREA

CITY           SKY/WX    TMP DP  RH WIND       PRES   REMARKS
OMAHA EPPLEY   CLOUDY    75  65  70 SE8       30.10R
BLAIR          CLOUDY    74  67  78 SE6       30.11R
FREMONT        CLEAR     76  65  68 SE9       30.10R
MILLARD        PTCLDY    75  67  74 SE7       30.10R
OFFUTT AFB     PTCLDY    73  67  82 E6        30.10R
PLATTSMOUTH    CLOUDY    73  65  77 SE5       30.11S
WAHOO          FAIR      75  67  76 SE7       30.09R
$$




USA.gov is the U.S. government's official web portal to all federal, state and local government web resources and services.